Total_Precipitation_Accumulation
0.23 0.43 0.99 1.64 2.71 2.98 2.30 1.45 1.04 0.92 0.93 0.90 0.82 0.87 0.97 1.23 1.78 2.85 2.86 2.43 1.86 1.90 2.46 2.66 2.93 2.77 2.65 2.54 2.61 2.77 2.79 2.57 2.37 2.35 2.42 2.46 2.48 2.35 2.37 2.46 2.49 2.53 2.50 2.60 2.80 2.76 2.84 2.87 2.86
0.41 0.78 1.48 2.48 3.17 2.63 2.09 1.34 0.83 0.73 0.76 0.89 0.90 0.82 0.74 0.86 1.02 1.58 2.26 2.34 1.59 1.50 1.88 2.02 2.41 2.46 2.47 2.35 2.43 2.59 2.51 2.33 2.24 2.14 2.30 2.40 2.42 2.43 2.42 2.51 2.60 2.63 2.58 2.68 2.81 2.78 2.82 2.84 2.84
0.64 1.00 1.74 2.73 2.34 1.90 1.75 1.20 0.74 0.53 0.67 0.94 0.96 0.72 0.82 1.15 1.22 1.63 1.97 1.84 1.47 1.42 1.59 1.92 2.21 2.26 2.27 2.19 2.22 2.29 2.18 2.09 2.10 2.11 2.21 2.32 2.44 2.51 2.53 2.55 2.69 2.91 2.98 2.95 2.91 2.95 2.94 2.86 2.76
0.90 1.29 1.92 2.13 1.46 1.02 0.98 0.93 0.74 0.65 0.80 0.93 0.83 0.77 0.98 1.36 1.36 1.47 1.46 1.38 1.23 1.46 1.63 1.93 2.27 2.21 2.17 2.12 2.06 2.02 1.99 1.97 1.99 2.07 2.27 2.39 2.47 2.51 2.54 2.62 2.77 3.07 3.10 2.89 2.93 3.03 2.98 2.98 2.93
1.12 1.71 2.32 1.78 1.23 0.84 0.65 0.63 0.67 0.78 0.87 0.97 0.85 0.91 1.35 1.52 1.21 1.13 1.09 1.25 1.33 1.60 1.86 2.08 2.35 2.37 2.35 2.21 2.06 1.93 1.82 1.87 1.91 1.99 2.21 2.34 2.37 2.35 2.42 2.57 2.61 2.64 2.76 2.89 2.98 2.97 2.92 3.00 2.99
1.43 1.80 1.95 1.39 0.94 0.67 0.55 0.55 0.67 0.82 0.81 0.86 0.96 1.14 1.76 1.72 1.30 1.16 1.14 1.32 1.49 1.66 1.93 2.30 2.56 2.71 2.64 2.40 2.14 1.95 1.84 1.77 1.82 1.90 1.97 2.10 2.21 2.29 2.50 2.57 2.41 2.29 2.45 2.78 2.98 2.98 3.00 3.00 3.01
1.49 1.78 1.63 1.07 0.78 0.64 0.59 0.55 0.58 0.73 0.81 0.99 1.01 1.19 1.81 1.99 1.50 1.19 1.31 1.66 1.84 1.86 1.82 2.21 2.58 2.75 2.81 2.61 2.20 2.05 1.93 1.79 1.78 1.77 1.84 1.93 2.08 2.18 2.36 2.51 2.45 2.30 2.34 2.66 2.96 3.01 3.19 3.04 2.82
1.01 1.22 1.26 0.91 0.70 0.60 0.49 0.48 0.57 0.73 0.83 0.87 0.99 1.22 1.57 1.65 1.39 1.34 1.62 2.14 2.44 2.38 2.13 1.92 2.08 2.51 2.73 2.54 2.40 2.33 2.02 1.73 1.73 1.81 2.00 2.20 2.34 2.37 2.45 2.46 2.67 2.47 2.37 2.61 2.94 3.03 3.07 2.95 2.93
0.70 1.02 1.15 0.82 0.57 0.49 0.46 0.48 0.51 0.57 0.65 0.88 1.11 1.31 1.31 1.14 1.17 1.42 1.80 2.27 2.61 2.48 2.35 2.04 1.94 2.14 2.34 2.19 2.05 2.29 2.06 1.87 2.05 2.35 2.51 2.65 2.70 2.48 2.58 2.52 3.01 2.93 2.83 3.02 3.18 3.30 3.41 3.43 3.44
0.63 0.86 0.72 0.47 0.38 0.42 0.41 0.42 0.43 0.64 0.92 1.34 1.60 1.51 1.30 1.17 1.30 1.59 1.90 2.06 2.18 2.24 2.20 2.22 2.01 2.04 2.11 1.94 2.18 2.66 2.35 2.36 2.66 2.82 2.73 3.29 3.49 3.24 2.61 2.74 3.36 3.51 3.55 3.61 3.63 3.89 3.84 3.70 3.65
0.46 0.48 0.37 0.30 0.24 0.31 0.37 0.37 0.42 0.65 1.19 1.64 1.85 1.55 1.35 1.37 1.50 1.65 2.06 2.24 2.33 2.35 2.22 2.30 2.17 2.16 2.33 2.54 2.56 2.81 2.90 3.07 3.23 3.25 3.29 3.67 3.50 3.12 2.84 3.09 3.55 3.68 3.65 3.65 3.77 4.01 3.66 3.61 3.78
0.24 0.19 0.19 0.19 0.20 0.23 0.26 0.32 0.51 0.76 1.19 1.45 1.36 1.20 1.18 1.47 1.69 1.89 2.23 2.57 2.68 2.79 2.73 2.52 2.40 2.65 2.85 2.81 2.75 2.66 2.47 2.54 2.82 2.97 2.92 3.44 3.91 3.77 3.62 3.76 3.71 3.91 4.06 4.33 4.00 3.99 3.87 3.86 3.78
0.20 0.17 0.16 0.17 0.17 0.21 0.22 0.31 0.50 0.82 1.03 1.06 0.93 0.98 1.26 1.61 1.88 2.37 2.86 2.92 2.90 3.19 3.37 3.19 3.08 3.09 2.99 3.11 2.78 2.46 2.42 2.26 2.24 2.64 2.93 3.15 3.57 3.77 3.83 3.64 3.63 3.46 3.62 3.76 3.77 3.48 3.66 3.92 3.98
0.15 0.14 0.17 0.20 0.19 0.21 0.28 0.37 0.49 0.73 0.82 0.81 0.89 1.13 1.35 1.77 2.09 2.65 3.16 3.23 3.34 3.64 3.87 3.79 3.78 3.60 3.32 3.09 3.00 2.88 2.67 2.58 2.28 2.53 2.69 2.96 3.33 3.49 3.39 3.47 3.60 3.41 3.44 3.44 3.47 3.50 3.88 4.12 4.24
0.14 0.16 0.23 0.24 0.22 0.23 0.33 0.61 0.63 0.79 0.88 0.87 1.07 1.20 1.57 2.02 2.31 2.65 2.88 3.28 3.74 4.19 4.28 4.23 4.22 4.17 4.16 3.82 3.43 3.09 3.03 2.78 2.71 2.71 2.64 2.86 3.19 3.44 3.38 3.35 3.21 3.20 3.28 3.46 3.50 3.65 3.89 3.78 3.92
0.22 0.38 0.54 0.40 0.31 0.28 0.41 0.97 1.04 0.95 0.90 1.00 1.20 1.45 1.69 1.98 2.39 2.62 2.95 3.31 3.76 4.33 4.76 4.84 4.32 4.35 4.45 4.40 4.10 3.62 3.54 3.41 3.24 2.92 2.77 2.75 3.03 3.16 3.22 3.05 2.94 2.99 2.87 3.03 3.34 3.42 3.52 3.67 3.87
0.26 0.39 0.50 0.51 0.35 0.32 0.48 1.07 1.36 1.09 0.90 1.05 1.36 1.60 1.89 2.13 2.54 2.68 2.87 3.15 3.65 4.62 5.58 5.60 5.10 4.69 4.44 4.44 4.51 4.34 4.17 3.86 3.39 3.16 3.06 2.89 2.77 2.57 2.69 2.77 2.87 2.70 2.67 2.79 2.68 3.26 3.48 3.61 3.75
0.20 0.25 0.41 0.58 0.41 0.37 0.54 1.00 1.06 1.04 1.14 1.12 1.21 1.39 1.64 1.76 2.07 2.34 2.65 3.21 4.05 5.30 6.13 6.04 5.43 5.04 4.76 4.59 4.45 4.44 4.21 3.94 3.48 3.30 3.12 2.84 2.84 2.47 2.54 2.54 2.66 2.54 2.70 2.94 3.18 3.51 3.49 3.38 3.46
0.16 0.22 0.35 0.43 0.36 0.45 0.59 0.90 1.02 1.13 1.32 1.29 1.19 1.20 1.43 1.61 1.89 2.37 2.92 3.77 4.88 5.85 6.17 5.68 5.22 4.96 4.60 4.24 3.65 3.36 3.50 3.45 3.22 2.89 2.53 2.48 2.38 2.46 2.75 2.51 2.73 2.56 2.70 2.84 2.97 3.18 3.23 3.09 3.18
0.17 0.22 0.34 0.40 0.32 0.36 0.62 0.99 1.28 1.24 1.20 1.16 1.25 1.27 1.34 1.68 2.11 2.82 3.84 4.42 4.71 4.87 4.63 4.33 4.13 3.99 3.50 3.25 3.18 3.00 3.09 2.83 2.67 2.58 2.69 2.30 2.16 2.25 2.26 2.63 2.62 2.64 2.87 2.88 2.90 3.12 3.08 2.94 3.00
0.20 0.23 0.31 0.39 0.29 0.36 0.65 1.24 1.53 1.44 1.18 1.05 1.16 1.20 1.34 1.71 2.30 3.12 3.71 3.83 3.58 3.25 3.12 3.10 3.24 3.04 2.94 3.03 2.97 2.91 3.03 2.74 2.56 2.53 2.67 2.27 1.97 1.96 2.09 2.25 2.48 2.72 2.60 2.80 2.91 2.84 3.00 3.07 3.00
0.22 0.17 0.15 0.19 0.29 0.55 0.78 1.51 1.69 1.46 1.36 1.15 1.19 1.21 1.21 1.45 1.84 2.28 2.55 2.44 2.53 2.66 2.68 2.83 2.95 2.73 2.77 2.80 2.57 2.49 2.46 2.35 2.33 2.39 2.50 2.53 2.08 1.90 1.90 2.02 2.25 2.48 2.37 2.68 2.46 2.69 3.08 3.12 2.90
0.12 0.10 0.13 0.21 0.36 0.59 0.83 1.23 1.46 1.23 1.38 1.17 1.05 1.03 0.95 1.14 1.32 1.46 1.56 1.67 1.85 1.98 2.16 2.44 2.73 2.73 2.61 2.48 2.47 2.52 2.38 2.37 2.36 2.39 2.49 2.59 2.36 2.07 1.85 1.96 2.19 2.33 2.28 2.37 2.44 2.86 2.90 2.86 2.86
0.10 0.12 0.23 0.35 0.55 1.09 1.07 1.12 1.37 1.37 1.38 1.21 1.04 0.86 0.87 1.01 1.18 1.28 1.28 1.38 1.55 1.69 1.91 2.17 2.55 2.67 2.63 2.46 2.37 2.41 2.47 2.48 2.44 2.49 2.47 2.29 2.26 2.23 2.03 2.04 2.22 2.19 2.20 2.27 2.34 2.64 2.66 2.83 2.97
0.12 0.18 0.43 0.80 1.18 1.36 0.90 0.98 1.29 1.20 1.05 0.94 0.72 0.67 0.75 0.93 1.10 1.28 1.30 1.27 1.34 1.48 1.61 1.72 2.00 2.28 2.40 2.35 2.30 2.30 2.48 2.41 2.23 2.17 2.16 2.14 1.93 1.88 1.94 2.04 2.22 2.10 2.10 2.19 2.48 2.63 2.62 2.79 2.83
0.11 0.13 0.28 0.46 0.56 0.70 0.88 1.28 1.40 1.17 0.79 0.54 0.52 0.65 0.81 0.94 1.03 1.15 1.20 1.16 1.21 1.27 1.43 1.59 1.92 2.11 2.28 2.30 2.28 2.30 2.38 2.27 2.10 2.15 1.96 1.95 1.87 1.79 1.87 1.98 1.99 1.97 2.04 2.08 2.53 2.43 2.51 2.69 2.61
0.11 0.12 0.13 0.20 0.25 0.50 0.91 1.21 1.17 1.00 0.78 0.63 0.60 0.68 0.88 0.90 0.86 0.97 1.01 1.16 1.25 1.22 1.36 1.51 1.79 2.15 2.38 2.48 2.54 2.46 2.43 2.42 2.37 2.30 2.06 1.86 1.99 1.88 1.97 2.06 2.05 2.07 2.23 2.39 2.61 2.44 2.48 2.65 2.47
0.11 0.13 0.16 0.18 0.26 0.43 0.75 1.18 1.39 1.22 0.98 0.82 0.76 0.76 0.82 0.84 0.85 1.06 1.24 1.33 1.22 1.10 1.20 1.34 1.63 2.12 2.41 2.59 2.55 2.39 2.54 2.46 2.44 2.34 2.13 1.95 1.94 1.98 2.12 2.27 2.24 2.30 2.34 2.45 2.58 2.36 2.49 2.54 2.43
0.11 0.12 0.17 0.19 0.19 0.29 0.60 0.87 0.83 0.84 0.79 0.77 0.83 0.81 0.67 0.73 0.88 1.12 1.41 1.44 1.25 1.07 1.04 1.19 1.57 1.90 2.16 2.35 2.43 2.29 2.24 2.18 2.20 2.21 2.14 2.09 2.09 2.07 2.09 2.21 2.26 2.24 2.28 2.38 2.50 2.30 2.38 2.38 2.41
0.12 0.15 0.18 0.23 0.21 0.20 0.35 0.62 0.48 0.57 0.65 0.75 0.89 0.95 0.90 0.92 0.97 1.03 1.20 1.36 1.27 1.18 1.15 1.35 1.64 1.81 1.93 2.04 2.10 2.08 2.08 2.08 2.01 1.95 2.02 2.08 2.00 1.92 1.98 2.06 2.06 2.00 2.13 2.32 2.32 2.20 2.30 2.37 2.33